Hobart, OK

6:58 PM CDT on June 22, 2017 (GMT -0500)
Hobart Municipal

Weather History for KHBR - October, 2013

Change the Weather History Date:

Tuesday, October 29, 2013

  Actual Average Record
Temperature  
Mean Temperature 73 °F -  
Max Temperature 80 °F 64 °F 87 °F (2003)
Min Temperature 66 °F 45 °F 36 °F (2012)
Cooling Degree Days 8    
Growing Degree Days 23 (Base 50)    
Moisture  
Dew Point 65 °F    
Average Humidity 82    
Maximum Humidity 94    
Minimum Humidity 58    
Precipitation  
Precipitation 0.00 in - - ()
Sea Level Pressure  
Sea Level Pressure 29.92 in    
Wind  
Wind Speed 19 mph (South)    
Max Wind Speed 23 mph    
Max Gust Speed 33 mph    
Visibility 10 miles    
Events      
Averages and records for this station are not official NWS values.
T = Trace of Precipitation, MM = Missing Value Source: NWS Daily Summary

Daily Weather History Graph

Daily Weather History Graph

Search for Another Location

Airport or City:

Trip Planner

Search our weather history database for the weather conditions in past years. The results will help you decide how hot, cold, wet, or windy it might be!

Date:

Astronomy

Oct. 29, 2013 Rise Set
Actual Time 7:54 AM CDT 6:44 PM CDT
Civil Twilight 7:28 AM CDT 7:10 PM CDT
Nautical Twilight 6:58 AM CDT 7:40 PM CDT
Astronomical Twilight 6:29 AM CDT 8:09 PM CDT
Moon 2:57 AM CDT (10/29) 3:49 PM CDT (10/29)
Length of Visible Light 11h 42m
Length of Day
10h 49m
Waning Crescent, 25% of the Moon is Illuminated
Oct 29
Waning Crescent
Nov 3
New
Nov 9
First Quarter
Nov 17
Full
Nov 25
Last Quarter

Hourly Weather History & Observations

Time (CDT) Temp. Heat Index Dew Point Humidity Pressure Visibility Wind Dir Wind Speed Gust Speed Precip Events Conditions
12:53 AM 66.9 °F - 63.0 °F 87% 29.93 in 10.0 mi South 23.0 mph 33.4 mph N/A   Clear
1:53 AM 66.0 °F - 64.0 °F 93% 29.92 in 9.0 mi South 21.9 mph 29.9 mph N/A   Clear
2:53 AM 66.0 °F - 64.0 °F 93% 29.92 in 9.0 mi South 18.4 mph - N/A   Clear
3:53 AM 66.9 °F - 64.0 °F 90% 29.92 in 10.0 mi South 21.9 mph 31.1 mph N/A   Overcast
4:03 AM 66.2 °F - 64.4 °F 94% 29.95 in 10.0 mi South 23.0 mph 27.6 mph N/A   Overcast
4:50 AM 68.0 °F - 64.4 °F 88% 29.96 in 10.0 mi South 18.4 mph - N/A   Overcast
4:53 AM 68.0 °F - 64.9 °F 90% 29.92 in 10.0 mi South 20.7 mph - N/A   Overcast
5:53 AM 66.9 °F - 64.0 °F 90% 29.93 in 10.0 mi South 19.6 mph 27.6 mph N/A   Overcast
6:53 AM 66.9 °F - 64.0 °F 90% 29.94 in 10.0 mi South 19.6 mph - N/A   Overcast
7:53 AM 66.0 °F - 64.0 °F 93% 29.94 in 10.0 mi South 16.1 mph - N/A   Overcast
8:26 AM 66.2 °F - 64.4 °F 94% 29.97 in 10.0 mi South 18.4 mph - N/A   Mostly Cloudy
8:53 AM 66.9 °F - 64.0 °F 90% 29.95 in 10.0 mi South 16.1 mph - N/A   Mostly Cloudy
9:53 AM 69.1 °F - 64.0 °F 84% 29.96 in 10.0 mi South 23.0 mph 28.8 mph N/A   Mostly Cloudy
10:53 AM 71.1 °F - 64.9 °F 81% 29.96 in 10.0 mi South 18.4 mph 25.3 mph N/A   Mostly Cloudy
11:42 AM 71.6 °F - 64.4 °F 78% 29.98 in 10.0 mi South 18.4 mph - N/A   Mostly Cloudy
11:53 AM 72.0 °F - 64.0 °F 76% 29.94 in 10.0 mi South 17.3 mph - N/A   Overcast
12:34 PM 73.4 °F - 64.4 °F 73% 29.98 in 10.0 mi South 16.1 mph - N/A   Overcast
12:43 PM 73.4 °F - 64.4 °F 73% 29.98 in 10.0 mi South 17.3 mph - N/A   Overcast
12:53 PM 73.9 °F - 66.0 °F 76% 29.93 in 10.0 mi SSW 13.8 mph - N/A   Overcast
1:53 PM 78.1 °F - 64.9 °F 64% 29.89 in 10.0 mi South 17.3 mph - N/A   Partly Cloudy
2:53 PM 78.1 °F - 64.9 °F 64% 29.87 in 10.0 mi South 13.8 mph - N/A   Partly Cloudy
3:53 PM 80.1 °F 81.7 °F 64.0 °F 58% 29.86 in 10.0 mi SSW 15.0 mph - N/A   Clear
4:53 PM 77.0 °F - 64.9 °F 66% 29.86 in 10.0 mi South 18.4 mph - N/A   Clear
5:53 PM 75.9 °F - 64.9 °F 69% 29.86 in 10.0 mi South 12.7 mph - N/A   Clear
6:53 PM 73.9 °F - 64.9 °F 73% 29.87 in 10.0 mi SSE 10.4 mph - N/A   Clear
7:53 PM 73.0 °F - 66.9 °F 81% 29.90 in 10.0 mi SSE 11.5 mph - N/A   Clear
8:53 PM 71.1 °F - 66.9 °F 87% 29.91 in 10.0 mi South 15.0 mph - N/A   Clear
9:53 PM 70.0 °F - 66.9 °F 90% 29.91 in 9.0 mi South 17.3 mph 24.2 mph N/A   Clear
10:53 PM 70.0 °F - 66.9 °F 90% 29.91 in 9.0 mi South 21.9 mph 27.6 mph N/A   Clear
11:53 PM 69.1 °F - 66.9 °F 93% 29.92 in 7.0 mi South 16.1 mph - N/A   Clear